Torna al catalogo

GLOBAL-19

AttivoComunicazioniVLEO
NORAD 55982·PAYLOAD·🇺🇸 United States

Lanciato Mar 24, 2023 da Rocket Lab Launch Complex 1

Loading…

Prossimi Passaggi (prossime 24 ore)

TLE

AggiornatoSource: Space-Track

Epoca: Sep 14, 2026, 10:34 UTC

1 55982U 23041B   26257.44068707  .00010379  00000-0  27297-3 0  9997
2 55982  42.0021  41.2447 0007840 248.4216 111.5788 15.38549062195670

Traccia GLOBAL-19 in tempo reale con AllMySat

Download on the App Store